| time (UTC) | temp F | wind direction | speed knots | gust knots | rain 1hr in | rain 24hr in | rain mn in | humidity % | barometer mb |
| 20260506231319 | 66 | 192 | 1.7 | 1.7 | 0.00 | 0.21 | 0.21 | 85 | 1009.5 |
| 20260506230816 | 66 | 270 | 0.9 | 0.9 | 0.00 | 0.21 | 0.21 | 85 | 1009.7 |
| 20260506230313 | 66 | 254 | 2.6 | 2.6 | 0.00 | 0.21 | 0.21 | 85 | 1009.6 |
| 20260506225809 | 66 | 272 | 2.6 | 2.6 | 0.00 | 0.21 | 0.21 | 85 | 1009.5 |
| 20260506225306 | 66 | 248 | 0.9 | 1.7 | 0.00 | 0.21 | 0.21 | 85 | 1009.6 |
| 20260506224803 | 66 | 257 | 0.9 | 0.9 | 0.00 | 0.21 | 0.21 | 85 | 1009.6 |
| 20260506224300 | 66 | 286 | 0.9 | 1.7 | 0.00 | 0.21 | 0.21 | 85 | 1009.4 |
| 20260506223756 | 66 | 280 | 0.9 | 0.9 | 0.00 | 0.21 | 0.21 | 86 | 1009.4 |
| 20260506223252 | 66 | 270 | 1.7 | 1.7 | 0.00 | 0.21 | 0.21 | 85 | 1009.5 |
| 20260506222749 | 66 | 190 | 2.6 | 4.3 | 0.00 | 0.21 | 0.21 | 85 | 1009.7 |
| 20260506222244 | 66 | 276 | 0.9 | 0.9 | 0.00 | 0.21 | 0.21 | 85 | 1009.5 |
| 20260506221743 | 66 | 286 | 0.9 | 0.9 | 0.00 | 0.21 | 0.21 | 85 | 1009.5 |
| 20260506221240 | 66 | 225 | 1.7 | 1.7 | 0.00 | 0.21 | 0.21 | 85 | 1009.3 |
| 20260506220737 | 66 | 284 | 0.9 | 0.9 | 0.00 | 0.21 | 0.21 | 84 | 1009.5 |
| 20260506220232 | 66 | 269 | 0.9 | 0.9 | 0.00 | 0.21 | 0.21 | 84 | 1009.5 |
| 20260506215729 | 66 | 248 | 1.7 | 1.7 | 0.00 | 0.21 | 0.21 | 84 | 1009.4 |
| 20260506215225 | 66 | 201 | 2.6 | 2.6 | 0.00 | 0.21 | 0.21 | 84 | 1009.3 |
| 20260506214722 | 66 | 289 | 0.9 | 1.7 | 0.00 | 0.21 | 0.21 | 84 | 1009.4 |
| 20260506214219 | 66 | 165 | 0.9 | 1.7 | 0.00 | 0.21 | 0.21 | 84 | 1009.4 |
| 20260506213717 | 66 | 269 | 0.9 | 0.9 | 0.00 | 0.21 | 0.21 | 84 | 1009.0 |
| 20260506213214 | 67 | 241 | 1.7 | 1.7 | 0.00 | 0.21 | 0.21 | 84 | 1009.2 |
| 20260506212711 | 66 | 270 | 0.9 | 1.7 | 0.00 | 0.21 | 0.21 | 84 | 1009.2 |
| 20260506212206 | 67 | 247 | 2.6 | 2.6 | 0.00 | 0.21 | 0.21 | 84 | 1009.3 |
| 20260506211702 | 67 | 189 | 2.6 | 2.6 | 0.00 | 0.21 | 0.21 | 84 | 1009.2 |
| 20260506211158 | 66 | 293 | 0.0 | 0.0 | 0.00 | 0.21 | 0.21 | 85 | 1009.1 |
| 20260506210655 | 66 | 209 | 0.9 | 1.7 | 0.00 | 0.21 | 0.21 | 85 | 1008.9 |
| 20260506210152 | 66 | 277 | 1.7 | 2.6 | 0.00 | 0.21 | 0.21 | 85 | 1009.2 |
| 20260506205649 | 66 | 270 | 0.9 | 1.7 | 0.00 | 0.21 | 0.21 | 85 | 1009.2 |
| 20260506205144 | 66 | 191 | 1.7 | 2.6 | 0.00 | 0.21 | 0.21 | 85 | 1009.1 |
| 20260506204642 | 66 | 280 | 0.9 | 0.9 | 0.00 | 0.21 | 0.21 | 85 | 1009.1 |
| 20260506204139 | 66 | 272 | 0.9 | 1.7 | 0.00 | 0.21 | 0.21 | 85 | 1009.0 |
| 20260506203637 | 66 | 271 | 0.9 | 1.7 | 0.00 | 0.21 | 0.21 | 84 | 1009.1 |
| 20260506203134 | 66 | 224 | 1.7 | 1.7 | 0.00 | 0.21 | 0.21 | 85 | 1008.9 |
| 20260506202632 | 66 | 184 | 2.6 | 5.2 | 0.00 | 0.21 | 0.21 | 85 | 1008.9 |
| 20260506202127 | 66 | 204 | 2.6 | 2.6 | 0.00 | 0.21 | 0.21 | 86 | 1008.8 |
| 20260506201625 | 65 | 274 | 0.0 | 0.9 | 0.00 | 0.21 | 0.21 | 87 | 1009.1 |
| 20260506201121 | 65 | 269 | 1.7 | 2.6 | 0.00 | 0.21 | 0.21 | 86 | 1009.0 |
| 20260506200618 | 64 | 230 | 1.7 | 2.6 | 0.00 | 0.21 | 0.21 | 87 | 1009.2 |
| 20260506200115 | 64 | 199 | 2.6 | 4.3 | 0.00 | 0.21 | 0.21 | 87 | 1009.0 |
| 20260506195611 | 64 | 286 | 0.9 | 1.7 | 0.00 | 0.21 | 0.21 | 87 | 1009.0 |
| 20260506195108 | 64 | 240 | 1.7 | 2.6 | 0.00 | 0.21 | 0.21 | 87 | 1009.1 |
| 20260506194605 | 64 | 202 | 2.6 | 4.3 | 0.00 | 0.21 | 0.21 | 87 | 1009.4 |
| 20260506194101 | 64 | 173 | 3.5 | 5.2 | 0.00 | 0.21 | 0.21 | 88 | 1009.2 |
| 20260506193559 | 64 | 249 | 0.9 | 1.7 | 0.00 | 0.21 | 0.21 | 89 | 1009.3 |
| 20260506193056 | 63 | 242 | 1.7 | 2.6 | 0.00 | 0.21 | 0.21 | 89 | 1009.2 |
| 20260506192553 | 63 | 256 | 0.9 | 1.7 | 0.00 | 0.21 | 0.21 | 90 | 1009.4 |
| 20260506192049 | 63 | 249 | 2.6 | 2.6 | 0.00 | 0.21 | 0.21 | 90 | 1009.4 |
| 20260506191545 | 62 | 177 | 4.3 | 4.3 | 0.00 | 0.21 | 0.21 | 90 | 1009.5 |
| 20260506191042 | 62 | 194 | 1.7 | 1.7 | 0.00 | 0.21 | 0.21 | 91 | 1009.6 |
| 20260506190539 | 62 | 267 | 1.7 | 1.7 | 0.00 | 0.21 | 0.21 | 91 | 1009.6 |
| 20260506190036 | 62 | 229 | 2.6 | 2.6 | 0.00 | 0.21 | 0.21 | 91 | 1009.7 |
| 20260506185533 | 62 | 274 | 2.6 | 2.6 | 0.00 | 0.21 | 0.21 | 91 | 1009.7 |
| 20260506185030 | 62 | 270 | 2.6 | 2.6 | 0.00 | 0.21 | 0.21 | 91 | 1009.7 |
| 20260506184527 | 62 | 199 | 1.7 | 1.7 | 0.00 | 0.21 | 0.21 | 91 | 1009.7 |
| 20260506184024 | 62 | 173 | 2.6 | 4.3 | 0.00 | 0.21 | 0.21 | 92 | 1009.7 |
| 20260506183520 | 62 | 189 | 2.6 | 2.6 | 0.00 | 0.21 | 0.21 | 92 | 1009.8 |
| 20260506183017 | 61 | 194 | 2.6 | 4.3 | 0.00 | 0.21 | 0.21 | 92 | 1009.8 |
| 20260506182514 | 61 | 244 | 3.5 | 4.3 | 0.00 | 0.21 | 0.21 | 93 | 1010.1 |
| 20260506182011 | 61 | 237 | 0.9 | 1.7 | 0.00 | 0.21 | 0.21 | 94 | 1010.1 |
| 20260506181509 | 61 | 273 | 1.7 | 2.6 | 0.00 | 0.21 | 0.21 | 94 | 1009.8 |
| 20260506181006 | 61 | 258 | 0.9 | 1.7 | 0.00 | 0.21 | 0.21 | 94 | 1009.9 |
| 20260506180503 | 61 | 203 | 1.7 | 1.7 | 0.00 | 0.21 | 0.21 | 93 | 1009.9 |
| 20260506175959 | 61 | 277 | 1.7 | 1.7 | 0.00 | 0.21 | 0.21 | 93 | 1009.7 |
| 20260506175455 | 61 | 219 | 2.6 | 4.3 | 0.00 | 0.21 | 0.21 | 94 | 1009.9 |
| 20260506174952 | 61 | 191 | 2.6 | 4.3 | 0.00 | 0.21 | 0.21 | 94 | 1010.0 |
| 20260506174450 | 61 | 236 | 1.7 | 1.7 | 0.00 | 0.21 | 0.21 | 94 | 1010.0 |
| 20260506173946 | 61 | 223 | 2.6 | 4.3 | 0.00 | 0.21 | 0.21 | 94 | 1010.1 |
| 20260506173444 | 60 | 283 | 2.6 | 2.6 | 0.00 | 0.21 | 0.21 | 95 | 1010.0 |
| 20260506172941 | 60 | 235 | 3.5 | 4.3 | 0.00 | 0.21 | 0.21 | 96 | 1010.1 |
| 20260506172438 | 60 | 201 | 2.6 | 4.3 | 0.00 | 0.21 | 0.21 | 96 | 1010.2 |
| 20260506171934 | 60 | 289 | 1.7 | 1.7 | 0.00 | 0.21 | 0.21 | 96 | 1010.1 |
| 20260506171432 | 60 | 187 | 1.7 | 1.7 | 0.00 | 0.21 | 0.21 | 96 | 1010.5 |
| 20260506170930 | 60 | 286 | 3.5 | 4.3 | 0.00 | 0.21 | 0.21 | 96 | 1010.2 |
| 20260506170425 | 61 | 220 | 3.5 | 5.2 | 0.00 | 0.21 | 0.21 | 96 | 1010.3 |
| 20260506165919 | 61 | 266 | 1.7 | 2.6 | 0.00 | 0.21 | 0.21 | 96 | 1010.2 |
| 20260506165416 | 61 | 172 | 4.3 | 6.1 | 0.00 | 0.21 | 0.21 | 96 | 1010.3 |
| 20260506164907 | 61 | 185 | 2.6 | 5.2 | 0.00 | 0.21 | 0.21 | 96 | 1010.3 |
| 20260506164403 | 61 | 268 | 1.7 | 1.7 | 0.00 | 0.21 | 0.21 | 96 | 1009.9 |
| 20260506163901 | 61 | 222 | 3.5 | 5.2 | 0.05 | 0.21 | 0.21 | 97 | 1010.0 |
| 20260506163356 | 61 | 190 | 4.3 | 6.1 | 0.05 | 0.21 | 0.21 | 97 | 1010.3 |
| 20260506162851 | 60 | 221 | 2.6 | 2.6 | 0.07 | 0.20 | 0.20 | 96 | 1010.3 |
| 20260506162349 | 60 | 218 | 3.5 | 4.3 | 0.12 | 0.20 | 0.20 | 96 | 1010.2 |
| 20260506161846 | 60 | 227 | 2.6 | 4.3 | 0.05 | 0.19 | 0.19 | 96 | 1010.4 |
| 20260506161344 | 60 | 260 | 2.6 | 2.6 | 0.07 | 0.18 | 0.18 | 96 | 1010.6 |
| 20260506160842 | 60 | 246 | 1.7 | 1.7 | 0.14 | 0.18 | 0.18 | 96 | 1010.8 |
| 20260506160338 | 60 | 198 | 0.9 | 1.7 | 0.07 | 0.17 | 0.17 | 96 | 1011.0 |
| 20260506155836 | 60 | 232 | 2.6 | 2.6 | 0.12 | 0.16 | 0.16 | 95 | 1011.3 |
| 20260506155332 | 60 | 198 | 1.7 | 2.6 | 0.17 | 0.16 | 0.16 | 95 | 1011.5 |
| 20260506153445 | 60 | 224 | 1.7 | 1.7 | 0.19 | 0.11 | 0.11 | 94 | 1011.6 |
| 20260506152942 | 60 | 263 | 1.7 | 1.7 | 0.17 | 0.10 | 0.10 | 93 | 1011.4 |
| 20260506152439 | 61 | 246 | 0.9 | 1.7 | 0.12 | 0.08 | 0.08 | 92 | 1011.5 |
| 20260506151938 | 61 | 282 | 1.7 | 2.6 | 0.12 | 0.07 | 0.07 | 91 | 1011.5 |
| 20260506151434 | 61 | 225 | 2.6 | 2.6 | 0.12 | 0.06 | 0.06 | 91 | 1011.0 |
| 20260506150932 | 61 | 204 | 1.7 | 2.6 | 0.14 | 0.05 | 0.05 | 91 | 1011.4 |
| 20260506150428 | 62 | 253 | 0.9 | 1.7 | 0.12 | 0.04 | 0.04 | 90 | 1011.5 |
| 20260506145925 | 62 | 268 | 0.9 | 0.9 | 0.12 | 0.03 | 0.03 | 89 | 1011.6 |
| 20260506145421 | 62 | 250 | 0.9 | 1.7 | 0.07 | 0.02 | 0.02 | 88 | 1011.3 |
| 20260506144919 | 62 | 195 | 2.6 | 2.6 | 0.00 | 0.01 | 0.01 | 87 | 1011.2 |
| 20260506144415 | 62 | 268 | 0.9 | 0.9 | 0.05 | 0.01 | 0.01 | 87 | 1011.5 |
| 20260506143914 | 63 | 232 | 1.7 | 2.6 | 0.05 | 0.01 | 0.01 | 86 | 1011.4 |
| 20260506143410 | 63 | 287 | 0.0 | 0.0 | 0.00 | 0.00 | 0.00 | 84 | 1011.5 |
| 20260506142909 | 63 | 177 | 2.6 | 4.3 | 0.00 | 0.00 | 0.00 | 83 | 1011.5 |
| 20260506142406 | 64 | 192 | 1.7 | 2.6 | 0.00 | 0.00 | 0.00 | 81 | 1011.5 |
| 20260506141904 | 64 | 249 | 1.7 | 2.6 | 0.00 | 0.00 | 0.00 | 79 | 1011.6 |
| 20260506141402 | 65 | 235 | 0.9 | 1.7 | 0.00 | 0.00 | 0.00 | 77 | 1011.6 |
| 20260506140900 | 65 | 260 | 2.6 | 2.6 | 0.00 | 0.00 | 0.00 | 75 | 1011.5 |
| 20260506140356 | 66 | 203 | 1.7 | 1.7 | 0.00 | 0.00 | 0.00 | 75 | 1011.5 |
| 20260506135854 | 66 | 223 | 2.6 | 4.3 | 0.00 | 0.00 | 0.00 | 75 | 1011.2 |
| 20260506135350 | 66 | 229 | 1.7 | 1.7 | 0.00 | 0.00 | 0.00 | 74 | 1011.2 |
| 20260506134846 | 66 | 267 | 2.6 | 4.3 | 0.00 | 0.00 | 0.00 | 75 | 1011.1 |
| 20260506134343 | 66 | 167 | 1.7 | 2.6 | 0.00 | 0.00 | 0.00 | 75 | 1011.2 |
| 20260506133840 | 65 | 238 | 0.9 | 1.7 | 0.00 | 0.00 | 0.00 | 75 | 1011.2 |
| 20260506133337 | 65 | 181 | 2.6 | 2.6 | 0.00 | 0.00 | 0.00 | 76 | 1011.3 |
| 20260506132833 | 65 | 231 | 5.2 | 6.1 | 0.00 | 0.00 | 0.00 | 76 | 1011.4 |
| 20260506132331 | 65 | 172 | 5.2 | 6.1 | 0.00 | 0.00 | 0.00 | 76 | 1011.3 |
| 20260506131829 | 65 | 251 | 1.7 | 2.6 | 0.00 | 0.00 | 0.00 | 76 | 1011.3 |
| 20260506131325 | 65 | 266 | 0.9 | 1.7 | 0.00 | 0.00 | 0.00 | 76 | 1011.3 |
| 20260506130822 | 65 | 225 | 4.3 | 5.2 | 0.00 | 0.00 | 0.00 | 76 | 1011.3 |
| 20260506130318 | 65 | 276 | 2.6 | 2.6 | 0.00 | 0.00 | 0.00 | 76 | 1011.6 |
| 20260506125816 | 65 | 271 | 1.7 | 1.7 | 0.00 | 0.00 | 0.00 | 76 | 1011.4 |
| 20260506125314 | 65 | 192 | 3.5 | 4.3 | 0.00 | 0.00 | 0.00 | 76 | 1011.5 |
| 20260506124813 | 65 | 215 | 3.5 | 5.2 | 0.00 | 0.00 | 0.00 | 76 | 1011.4 |
| 20260506124309 | 65 | 267 | 2.6 | 5.2 | 0.00 | 0.00 | 0.00 | 76 | 1011.3 |
| 20260506123807 | 65 | 263 | 1.7 | 1.7 | 0.00 | 0.00 | 0.00 | 76 | 1011.3 |
| 20260506123306 | 65 | 188 | 4.3 | 5.2 | 0.00 | 0.00 | 0.00 | 77 | 1011.3 |
| 20260506122802 | 65 | 231 | 3.5 | 4.3 | 0.00 | 0.00 | 0.00 | 77 | 1011.5 |
| 20260506122259 | 64 | 264 | 5.2 | 7.0 | 0.00 | 0.00 | 0.00 | 78 | 1011.3 |
| 20260506121757 | 64 | 275 | 2.6 | 5.2 | 0.00 | 0.00 | 0.00 | 78 | 1011.1 |
| 20260506121254 | 64 | 241 | 2.6 | 2.6 | 0.00 | 0.00 | 0.00 | 78 | 1011.2 |
| 20260506120751 | 64 | 167 | 5.2 | 7.0 | 0.00 | 0.00 | 0.00 | 78 | 1011.0 |
| 20260506120249 | 64 | 214 | 4.3 | 5.2 | 0.00 | 0.00 | 0.00 | 79 | 1011.1 |
| 20260506115746 | 64 | 247 | 1.7 | 1.7 | 0.00 | 0.00 | 0.00 | 79 | 1011.0 |
| 20260506115244 | 64 | 212 | 3.5 | 4.3 | 0.00 | 0.00 | 0.00 | 79 | 1010.9 |
| 20260506114742 | 63 | 162 | 1.7 | 2.6 | 0.00 | 0.00 | 0.00 | 80 | 1011.1 |
| 20260506114239 | 63 | 247 | 4.3 | 7.0 | 0.00 | 0.00 | 0.00 | 80 | 1011.0 |
| 20260506113738 | 63 | 176 | 2.6 | 6.1 | 0.00 | 0.00 | 0.00 | 80 | 1011.0 |
| 20260506113235 | 63 | 220 | 2.6 | 4.3 | 0.00 | 0.00 | 0.00 | 80 | 1010.9 |
| 20260506112731 | 63 | 125 | 4.3 | 6.1 | 0.00 | 0.00 | 0.00 | 80 | 1010.9 |
| 20260506112229 | 63 | 221 | 3.5 | 5.2 | 0.00 | 0.00 | 0.00 | 81 | 1010.8 |
| 20260506111726 | 63 | 167 | 5.2 | 7.0 | 0.00 | 0.00 | 0.00 | 81 | 1011.0 |
| 20260506111224 | 63 | 177 | 4.3 | 6.1 | 0.00 | 0.00 | 0.00 | 81 | 1011.1 |
| 20260506110721 | 63 | 242 | 4.3 | 6.1 | 0.00 | 0.00 | 0.00 | 81 | 1011.0 |
| 20260506110218 | 63 | 193 | 3.5 | 5.2 | 0.00 | 0.00 | 0.00 | 81 | 1010.8 |
| 20260506105714 | 63 | 170 | 2.6 | 5.2 | 0.00 | 0.00 | 0.00 | 81 | 1011.0 |
| 20260506105211 | 63 | 224 | 3.5 | 4.3 | 0.00 | 0.00 | 0.00 | 81 | 1011.2 |
| 20260506104710 | 63 | 208 | 4.3 | 6.1 | 0.00 | 0.00 | 0.00 | 82 | 1010.8 |
| 20260506104207 | 63 | 253 | 3.5 | 4.3 | 0.00 | 0.00 | 0.00 | 82 | 1010.7 |
| 20260506103704 | 63 | 187 | 3.5 | 5.2 | 0.00 | 0.00 | 0.00 | 82 | 1010.7 |
| 20260506103201 | 63 | 231 | 2.6 | 5.2 | 0.00 | 0.00 | 0.00 | 82 | 1011.0 |
| 20260506102659 | 63 | 230 | 2.6 | 4.3 | 0.00 | 0.00 | 0.00 | 82 | 1010.9 |
| 20260506102156 | 63 | 202 | 1.7 | 2.6 | 0.00 | 0.00 | 0.00 | 82 | 1010.9 |
| 20260506101653 | 63 | 212 | 3.5 | 4.3 | 0.00 | 0.00 | 0.00 | 82 | 1010.8 |
| 20260506101150 | 63 | 171 | 4.3 | 6.1 | 0.00 | 0.00 | 0.00 | 82 | 1010.9 |
| 20260506100648 | 63 | 183 | 4.3 | 6.1 | 0.00 | 0.00 | 0.00 | 82 | 1010.8 |
| 20260506100146 | 63 | 183 | 4.3 | 5.2 | 0.00 | 0.00 | 0.00 | 82 | 1010.8 |
| 20260506095644 | 63 | 171 | 5.2 | 7.0 | 0.00 | 0.00 | 0.00 | 82 | 1011.1 |
| 20260506095140 | 63 | 225 | 4.3 | 5.2 | 0.00 | 0.00 | 0.00 | 82 | 1011.2 |
| 20260506094638 | 63 | 207 | 2.6 | 2.6 | 0.00 | 0.00 | 0.00 | 82 | 1011.0 |
| 20260506094136 | 63 | 232 | 4.3 | 6.1 | 0.00 | 0.00 | 0.00 | 82 | 1011.0 |
| 20260506093634 | 63 | 209 | 3.5 | 5.2 | 0.00 | 0.00 | 0.00 | 81 | 1011.0 |
| 20260506093131 | 63 | 232 | 4.3 | 5.2 | 0.00 | 0.00 | 0.00 | 81 | 1011.0 |
| 20260506092628 | 63 | 200 | 3.5 | 4.3 | 0.00 | 0.00 | 0.00 | 81 | 1010.8 |
| 20260506092125 | 63 | 249 | 3.5 | 5.2 | 0.00 | 0.00 | 0.00 | 81 | 1010.8 |
| 20260506091623 | 64 | 187 | 2.6 | 4.3 | 0.00 | 0.00 | 0.00 | 81 | 1010.8 |
| 20260506091121 | 64 | 184 | 3.5 | 5.2 | 0.00 | 0.00 | 0.00 | 80 | 1011.0 |
| 20260506090619 | 64 | 188 | 4.3 | 6.1 | 0.00 | 0.00 | 0.00 | 80 | 1010.8 |
| 20260506090114 | 64 | 181 | 3.5 | 4.3 | 0.00 | 0.00 | 0.00 | 80 | 1011.1 |
| 20260506085611 | 64 | 233 | 3.5 | 5.2 | 0.00 | 0.00 | 0.00 | 80 | 1010.9 |
| 20260506085108 | 64 | 197 | 2.6 | 2.6 | 0.00 | 0.00 | 0.00 | 80 | 1010.9 |
| 20260506084605 | 64 | 189 | 3.5 | 5.2 | 0.00 | 0.00 | 0.00 | 80 | 1011.2 |
| 20260506084101 | 64 | 249 | 3.5 | 4.3 | 0.00 | 0.00 | 0.00 | 80 | 1011.0 |
| 20260506083558 | 64 | 216 | 4.3 | 6.1 | 0.00 | 0.00 | 0.00 | 79 | 1011.0 |
| 20260506083055 | 64 | 196 | 4.3 | 6.1 | 0.00 | 0.00 | 0.00 | 79 | 1010.9 |
| 20260506082552 | 65 | 218 | 4.3 | 5.2 | 0.00 | 0.00 | 0.00 | 79 | 1011.1 |
| 20260506082048 | 65 | 233 | 3.5 | 5.2 | 0.00 | 0.00 | 0.00 | 78 | 1011.2 |
| 20260506081546 | 65 | 249 | 2.6 | 2.6 | 0.00 | 0.00 | 0.00 | 78 | 1011.1 |
| 20260506081043 | 65 | 194 | 3.5 | 4.3 | 0.00 | 0.00 | 0.00 | 78 | 1011.3 |
| 20260506080541 | 65 | 172 | 2.6 | 4.3 | 0.00 | 0.00 | 0.00 | 78 | 1011.1 |
| 20260506073524 | 65 | 183 | 3.5 | 5.2 | 0.00 | 0.00 | 0.00 | 78 | 1011.6 |
| 20260506073021 | 65 | 194 | 4.3 | 6.1 | 0.00 | 0.00 | 0.00 | 78 | 1011.3 |
| 20260506072519 | 65 | 197 | 2.6 | 4.3 | 0.00 | 0.00 | 0.00 | 77 | 1011.3 |
| 20260506072016 | 65 | 240 | 1.7 | 1.7 | 0.00 | 0.00 | 0.00 | 77 | 1011.5 |
| 20260506071514 | 65 | 224 | 2.6 | 2.6 | 0.00 | 0.00 | 0.00 | 77 | 1011.4 |
| 20260506071011 | 65 | 250 | 2.6 | 4.3 | 0.00 | 0.00 | 0.00 | 77 | 1011.6 |
| 20260506070508 | 66 | 247 | 4.3 | 5.2 | 0.00 | 0.00 | 0.00 | 76 | 1011.5 |
| 20260506062445 | 66 | 144 | 2.6 | 2.6 | 0.00 | 0.00 | 0.00 | 74 | 1011.7 |
| 20260506061941 | 66 | 187 | 4.3 | 7.0 | 0.00 | 0.00 | 0.00 | 74 | 1011.9 |
| 20260506061438 | 66 | 222 | 1.7 | 1.7 | 0.00 | 0.00 | 0.00 | 74 | 1011.8 |
| 20260506060936 | 66 | 158 | 1.7 | 2.6 | 0.00 | 0.00 | 0.00 | 74 | 1011.7 |
| 20260506060434 | 66 | 194 | 1.7 | 2.6 | 0.00 | 0.00 | 0.00 | 73 | 1011.7 |
| 20260506051406 | 66 | 179 | 2.6 | 4.3 | 0.00 | 0.00 | 0.00 | 71 | 1012.3 |
| 20260506050903 | 66 | 259 | 0.9 | 1.7 | 0.00 | 0.00 | 0.00 | 71 | 1012.1 |
| 20260506050401 | 66 | 176 | 3.5 | 5.2 | 0.00 | 0.00 | 0.00 | 71 | 1012.2 |
| 20260506044851 | 66 | 238 | 1.7 | 1.7 | 0.00 | 0.00 | 0.00 | 70 | 1012.4 |
| 20260506044349 | 66 | 186 | 2.6 | 4.3 | 0.00 | 0.00 | 0.00 | 70 | 1012.3 |
| 20260506043845 | 66 | 203 | 2.6 | 2.6 | 0.00 | 0.00 | 0.00 | 69 | 1012.4 |
| 20260506043343 | 66 | 169 | 0.9 | 1.7 | 0.00 | 0.00 | 0.00 | 69 | 1012.3 |
| 20260506042841 | 66 | 214 | 2.6 | 4.3 | 0.00 | 0.00 | 0.00 | 69 | 1012.5 |
| 20260506042340 | 67 | 202 | 2.6 | 2.6 | 0.00 | 0.00 | 0.00 | 69 | 1012.6 |
| 20260506041838 | 67 | 230 | 2.6 | 2.6 | 0.00 | 0.00 | 0.00 | 68 | 1012.4 |
| 20260506041335 | 67 | 173 | 3.5 | 4.3 | 0.00 | 0.00 | 0.00 | 68 | 1012.4 |
| 20260506040832 | 67 | 211 | 2.6 | 2.6 | 0.00 | 0.00 | 0.00 | 68 | 1012.5 |
| 20260506040329 | 67 | 229 | 3.5 | 4.3 | 0.00 | 0.00 | 0.00 | 68 | 1012.4 |
| 20260506035825 | 67 | 167 | 2.6 | 2.6 | 0.00 | 0.00 | 0.00 | 67 | 1012.3 |
| 20260506035323 | 67 | 265 | 2.6 | 4.3 | 0.00 | 0.00 | 0.00 | 67 | 1012.2 |
| 20260506034820 | 67 | 235 | 2.6 | 4.3 | 0.00 | 0.00 | 0.00 | 67 | 1012.3 |
| 20260506034317 | 67 | 199 | 4.3 | 5.2 | 0.00 | 0.00 | 0.00 | 67 | 1012.2 |
| 20260506033814 | 67 | 182 | 3.5 | 4.3 | 0.00 | 0.00 | 0.00 | 67 | 1012.1 |
| 20260506033311 | 67 | 229 | 5.2 | 7.0 | 0.00 | 0.00 | 0.00 | 66 | 1012.1 |
| 20260506032808 | 67 | 181 | 2.6 | 4.3 | 0.00 | 0.00 | 0.00 | 66 | 1012.1 |
| 20260506032306 | 67 | 211 | 2.6 | 2.6 | 0.00 | 0.00 | 0.00 | 66 | 1012.1 |
| 20260506031801 | 68 | 249 | 3.5 | 4.3 | 0.00 | 0.00 | 0.00 | 66 | 1012.2 |
| 20260506031259 | 68 | 238 | 1.7 | 1.7 | 0.00 | 0.00 | 0.00 | 65 | 1012.3 |
| 20260506030757 | 68 | 239 | 2.6 | 2.6 | 0.00 | 0.00 | 0.00 | 65 | 1012.1 |
| 20260506030254 | 68 | 188 | 2.6 | 4.3 | 0.00 | 0.00 | 0.00 | 65 | 1012.3 |
| 20260506025751 | 68 | 186 | 5.2 | 6.1 | 0.00 | 0.00 | 0.00 | 64 | 1012.3 |
| 20260506025247 | 68 | 218 | 2.6 | 4.3 | 0.00 | 0.00 | 0.00 | 64 | 1012.3 |
| 20260506024744 | 68 | 185 | 3.5 | 4.3 | 0.00 | 0.00 | 0.00 | 63 | 1012.5 |
| 20260506024241 | 68 | 254 | 2.6 | 4.3 | 0.00 | 0.00 | 0.00 | 63 | 1012.4 |
| 20260506023737 | 69 | 185 | 1.7 | 2.6 | 0.00 | 0.00 | 0.00 | 62 | 1012.5 |
| 20260506023234 | 69 | 233 | 3.5 | 5.2 | 0.00 | 0.00 | 0.00 | 62 | 1012.6 |
| 20260506022731 | 69 | 160 | 1.7 | 1.7 | 0.00 | 0.00 | 0.00 | 60 | 1012.5 |
| 20260506022229 | 70 | 207 | 4.3 | 5.2 | 0.00 | 0.00 | 0.00 | 59 | 1012.5 |
| 20260506021727 | 70 | 250 | 2.6 | 2.6 | 0.00 | 0.00 | 0.00 | 58 | 1012.4 |
| 20260506021223 | 70 | 247 | 2.6 | 4.3 | 0.00 | 0.00 | 0.00 | 57 | 1012.3 |
| 20260506020720 | 71 | 249 | 3.5 | 4.3 | 0.00 | 0.00 | 0.00 | 56 | 1012.3 |
| 20260506020218 | 71 | 194 | 3.5 | 5.2 | 0.00 | 0.00 | 0.00 | 54 | 1012.1 |
| 20260506015710 | 71 | 249 | 0.9 | 1.7 | 0.00 | 0.00 | 0.00 | 53 | 1012.2 |
| 20260506015207 | 72 | 197 | 1.7 | 2.6 | 0.00 | 0.00 | 0.00 | 53 | 1012.2 |
| 20260506014704 | 72 | 219 | 2.6 | 2.6 | 0.00 | 0.00 | 0.00 | 52 | 1012.1 |
| 20260506014200 | 72 | 189 | 2.6 | 2.6 | 0.00 | 0.00 | 0.00 | 52 | 1011.8 |
| 20260506013658 | 72 | 250 | 1.7 | 2.6 | 0.00 | 0.00 | 0.00 | 51 | 1011.9 |
| 20260506013155 | 72 | 214 | 1.7 | 2.6 | 0.00 | 0.00 | 0.00 | 51 | 1011.9 |
| 20260506012651 | 72 | 229 | 2.6 | 5.2 | 0.00 | 0.00 | 0.00 | 50 | 1011.8 |
| 20260506012148 | 72 | 242 | 1.7 | 1.7 | 0.00 | 0.00 | 0.00 | 50 | 1011.9 |
| 20260506011645 | 73 | 171 | 2.6 | 2.6 | 0.00 | 0.00 | 0.00 | 49 | 1011.8 |
| 20260506011141 | 73 | 246 | 2.6 | 2.6 | 0.00 | 0.00 | 0.00 | 49 | 1011.7 |
| 20260506010640 | 73 | 228 | 3.5 | 4.3 | 0.00 | 0.00 | 0.00 | 49 | 1011.9 |
| 20260506010137 | 73 | 204 | 5.2 | 6.1 | 0.00 | 0.00 | 0.00 | 48 | 1011.8 |
| 20260506005634 | 73 | 241 | 6.1 | 7.0 | 0.00 | 0.00 | 0.00 | 48 | 1011.7 |
| 20260506005131 | 73 | 191 | 6.1 | 7.8 | 0.00 | 0.00 | 0.00 | 47 | 1011.6 |
| 20260506004627 | 73 | 263 | 3.5 | 4.3 | 0.00 | 0.00 | 0.00 | 47 | 1011.6 |
| 20260506004124 | 74 | 223 | 2.6 | 4.3 | 0.00 | 0.00 | 0.00 | 46 | 1011.7 |
| 20260506003620 | 74 | 182 | 4.3 | 5.2 | 0.00 | 0.00 | 0.00 | 46 | 1011.7 |
| 20260506003116 | 74 | 178 | 3.5 | 4.3 | 0.00 | 0.00 | 0.00 | 46 | 1011.5 |
| 20260506002613 | 74 | 178 | 5.2 | 7.8 | 0.00 | 0.00 | 0.00 | 45 | 1011.5 |
| 20260506002109 | 74 | 235 | 2.6 | 4.3 | 0.00 | 0.00 | 0.00 | 45 | 1011.4 |
| 20260506001605 | 74 | 242 | 1.7 | 2.6 | 0.00 | 0.00 | 0.00 | 45 | 1011.5 |
| 20260506001102 | 74 | 226 | 5.2 | 7.0 | 0.00 | 0.00 | 0.00 | 45 | 1011.4 |
| 20260506000600 | 75 | 189 | 3.5 | 4.3 | 0.00 | 0.00 | 0.00 | 45 | 1011.4 |
| 20260506000057 | 75 | 242 | 2.6 | 5.2 | 0.00 | 0.00 | 0.00 | 45 | 1011.2 |
| 20260505235555 | 75 | 272 | 1.7 | 2.6 | 0.00 | 0.00 | 0.00 | 46 | 1011.1 |
| 20260505235052 | 75 | 194 | 1.7 | 2.6 | 0.00 | 0.00 | 0.00 | 46 | 1011.2 |
| 20260505234549 | 75 | 223 | 2.6 | 2.6 | 0.00 | 0.00 | 0.00 | 46 | 1011.2 |
| 20260505234045 | 75 | 236 | 3.5 | 4.3 | 0.00 | 0.00 | 0.00 | 46 | 1011.1 |
| 20260505233543 | 75 | 151 | 2.6 | 2.6 | 0.00 | 0.00 | 0.00 | 46 | 1011.1 |
| 20260505233040 | 75 | 209 | 2.6 | 2.6 | 0.00 | 0.00 | 0.00 | 46 | 1011.1 |
| 20260505232538 | 76 | 162 | 3.5 | 4.3 | 0.00 | 0.00 | 0.00 | 46 | 1011.0 |
| 20260505232035 | 76 | 237 | 2.6 | 2.6 | 0.00 | 0.00 | 0.00 | 45 | 1011.0 |